Location: Unspecified
(22.6800°N, 112.2000°E)
Time: 22:38:22
(UTC+08:00)

Transit 4A - Pass Details

Date: 08 August 2021
Orbit: 871 x 974 km, 66.8° (Epoch: 21 September)

Event Time Altitude Azimuth Distance (km) Brightness Sun altitude
Exits shadow 23:08:54 14° 338° (NNW) 2,264 10.4 -45.8°
Drops below altitude 10° 23:09:59 10° 347° (NNW) 2,525 10.7 -45.9°
Sets 23:13:07 0° 3° (N) 3,458 11.4 -46.3°
